Content
SEND FEEDBACK

Daily
Averages
Monthly
Summary
United States of America

TRILLA, ILLINOIS


Home > North America > United States > Illinois
Elevation: 210 meters     Latitude: 39 28N     Longitude: 088 19W

WEATHER
 
SELECT A DAY
Number of Records: 183,958;   Date Range: 12/4/97 - 12/18/14
 
SHARE

PRINT THIS DATA

[ ← Previous Day ]
WEATHER ALMANAC - 31 JANUARY, 2013
[ Next Day → ]
[ °F ]   °C
Weather ElementAverageHighLow
Temperature-5.5 °C-1.7 °C (12:53 pm)-13.3 °C (10:53 pm)
Dewpoint-10.1 °C-6 °C (10:23 am)-18.9 °C (10:53 pm)
Humidity70.5 %81 % (9:53 am)64 % (12:53 pm)
Barometer1016.3 hPa1026.4 hPa (11:53 pm)1011.2 hPa (1:53 am)
Wind Speed30.7 km/h48.1 km/h (5:53 pm)
Wind Gust61.2 km/h (5:53 pm)
Weather ElementAverage
Visibility12.4 km
Wind DirectionWNW (280 °)

Weather ElementTotal
Precipitation---
Heating Degree Days25.8 (Base 18.3)
Averaged from 34 records on 31 January, 2013
WEATHER CONDITIONS BREAKOUT
WIND DIRECTION BREAKOUT
WEATHER BY HOUR - 31 JANUARY, 2013
[ °F ]   °C
Local TimeTemperatureDewpointHumidityBarometerVisibilityWind DirectionWind SpeedGust SpeedPrecipitationEventsConditions
1:53 AM-4.4 °C-9.4 °C69 %1011.2 hPa16.1 kmWest (280°)38.9 km/h50.1 km/hOvercast
2:53 AM-5.6 °C-10 °C72 %1011.9 hPa16.1 kmWNW (290°)33.3 km/h50.1 km/hPartly Cloudy
3:53 AM-5.6 °C-9.4 °C75 %1011.9 hPa16.1 kmWest (260°)20.4 km/h35.2 km/hMostly Cloudy
4:53 AM-4.4 °C-10 °C65 %1011.9 hPa16.1 kmWest (260°)18.5 km/h37 km/hOvercast
5:53 AM-3.9 °C-9.4 °C66 %1011.9 hPa16.1 kmWest (270°)25.9 km/h38.9 km/hOvercast
6:53 AM-3.9 °C-9.4 °C66 %1012.9 hPa16.1 kmWest (260°)20.4 km/h38.9 km/hOvercast
7:53 AM-3.3 °C-8.9 °C66 %1013.5 hPa16.1 kmWSW (250°)16.7 km/h38.9 km/hOvercast
8:53 AM-2.8 °C-8.3 °C66 %1014.2 hPa16.1 kmWest (260°)22.2 km/h37 km/h0 mmOvercast
9:12 AM-3 °C-7 °C74 %1013.2 hPa2.9 kmWest (270°)24.1 km/h37 km/h0 mmSnowLight Snow
9:25 AM-3 °C-7 °C74 %1013.5 hPa4.8 kmWest (270°)25.9 km/h38.9 km/h0 mmSnowLight Snow
9:34 AM-3 °C-8 °C69 %1013.5 hPa14.5 kmWest (270°)24.1 km/h0 mmOvercast
9:47 AM-3 °C-7 °C74 %1013.9 hPa2.9 kmWest (270°)24.1 km/h37 km/h0 mmSnowLight Snow
9:53 AM-3.3 °C-6.1 °C81 %1014.9 hPa2.9 kmWest (260°)24.1 km/h33.3 km/h0 mmSnowLight Snow
9:56 AM-3 °C-7 °C74 %1013.9 hPa4.8 kmWest (260°)20.4 km/h33.3 km/h0 mmSnowLight Snow
10:14 AM-3 °C-7 °C74 %1014.2 hPa4 kmWest (270°)25.9 km/h35.2 km/h0 mmSnowLight Snow
10:23 AM-3 °C-6 °C80 %1014.2 hPa6.4 kmWest (270°)25.9 km/h35.2 km/h0 mmSnowLight Snow
10:38 AM-3 °C-6 °C80 %1014.6 hPa2.9 kmWSW (250°)16.7 km/h0 mmSnowLight Snow
10:53 AM-2.8 °C-6.7 °C75 %1015.6 hPa4 kmWest (270°)29.6 km/h40.7 km/h0 mmSnowLight Snow
11:00 AM-3 °C-7 °C74 %1014.6 hPa4.8 kmWest (270°)24.1 km/h40.7 km/h0 mmSnowLight Snow
11:21 AM-3 °C-7 °C74 %1014.6 hPa12.9 kmWest (270°)27.8 km/h38.9 km/h0 mmSnowLight Snow
11:53 AM-2.2 °C-6.7 °C72 %1015.2 hPa16.1 kmWest (280°)27.8 km/h38.9 km/h0 mmSnowLight Snow
12:53 PM-1.7 °C-7.8 °C64 %1014.6 hPa16.1 kmWest (270°)25.9 km/h46.3 km/h0 mmOvercast
2:53 PM-2.8 °C-7.8 °C69 %1015.2 hPa16.1 kmWNW (300°)37 km/h44.4 km/hOvercast
3:53 PM-4.4 °C-10 °C65 %1016.3 hPa16.1 kmWNW (300°)40.7 km/h48.1 km/hOvercast
4:53 PM-6.7 °C-11.7 °C68 %1017.6 hPa16.1 kmNW (310°)42.6 km/h53.8 km/h0 mmOvercast
5:53 PM-8.9 °C-13.9 °C68 %1019.3 hPa16.1 kmNW (310°)48.1 km/h61.2 km/hOvercast
6:43 PM-9 °C-13 °C73 %1019.3 hPa16.1 kmWNW (300°)40.7 km/h51.8 km/h0 mmOvercast
6:53 PM-10 °C-13.9 °C74 %1020.7 hPa14.5 kmWNW (300°)38.9 km/h57.5 km/h0 mmSnowLight Snow
7:53 PM-10.6 °C-16.1 °C65 %1021.7 hPa16.1 kmNW (310°)40.7 km/h53.8 km/h0 mmMostly Cloudy
8:00 PM-11 °C-16 °C67 %1020.7 hPa16.1 kmWNW (300°)42.6 km/h55.5 km/hMostly Cloudy
8:53 PM-11.7 °C-17.2 °C64 %1023 hPa16.1 kmWNW (300°)44.4 km/h57.5 km/h0 mmScattered Clouds
9:53 PM-12.2 °C-17.8 °C64 %1024.4 hPa16.1 kmNW (310°)37 km/h59.2 km/hPartly Cloudy
10:53 PM-13.3 °C-18.9 °C64 %1025.4 hPa16.1 kmWNW (300°)44.4 km/h53.8 km/hClear
11:53 PM-13.3 °C-17.2 °C73 %1026.4 hPa16.1 kmWNW (300°)44.4 km/h55.5 km/hClear
Hourly data recorded from KMTO, located 0 kilometers away from Trilla, Illinois







STORIES FROM OUR PARTNERS